Lancaster, OH

6:05 AM EDT on May 26, 2017 (GMT -0400)
Fairfield County

Weather History for KLHQ - October, 2012

Change the Weather History Date:

Tuesday, October 2, 2012

  Actual Average Record
Temperature  
Mean Temperature 66 °F -  
Max Temperature 79 °F 71 °F 88 °F (1953)
Min Temperature 55 °F 45 °F 22 °F (1947)
Cooling Degree Days 2    
Growing Degree Days 16 (Base 50)    
Moisture  
Dew Point 61 °F    
Average Humidity 88    
Maximum Humidity 96    
Minimum Humidity 66    
Precipitation  
Precipitation 0.49 in - - ()
Sea Level Pressure  
Sea Level Pressure 29.80 in    
Wind  
Wind Speed 3 mph (ESE)    
Max Wind Speed 14 mph    
Max Gust Speed 25 mph    
Visibility 6 miles    
Events Fog , Rain    
Averages and records for this station are not official NWS values.
T = Trace of Precipitation, MM = Missing Value Source: NWS Daily Summary

Daily Weather History Graph

Daily Weather History Graph

Search for Another Location

Airport or City:

Trip Planner

Search our weather history database for the weather conditions in past years. The results will help you decide how hot, cold, wet, or windy it might be!

Date:

Astronomy

Oct. 02, 2012 Rise Set
Actual Time 7:28 AM EDT 7:10 PM EDT
Civil Twilight 7:01 AM EDT 7:37 PM EDT
Nautical Twilight 6:30 AM EDT 8:08 PM EDT
Astronomical Twilight 5:58 AM EDT 8:40 PM EDT
Moon 8:23 PM EDT (10/2) 9:53 AM EDT (10/2)
Length of Visible Light 12h 36m
Length of Day
11h 42m
Waning Gibbous, 94% of the Moon is Illuminated
Oct 2
Waning Gibbous
Oct 8
Last Quarter
Oct 15
New
Oct 21
First Quarter
Oct 29
Full

Hourly Weather History & Observations

Time (EDT) Temp. Dew Point Humidity Pressure Visibility Wind Dir Wind Speed Gust Speed Precip Events Conditions
12:53 AM 55.0 °F 52.0 °F 89% 29.75 in 10.0 mi East 3.5 mph - N/A   Overcast
1:53 AM 55.0 °F 53.1 °F 93% 29.74 in 8.0 mi East 3.5 mph - N/A   Overcast
3:43 AM 57.2 °F 55.4 °F 94% 29.73 in 8.0 mi East 4.6 mph - 0.00 in Rain Light Rain
3:53 AM 57.0 °F 55.0 °F 93% 29.72 in 9.0 mi ESE 3.5 mph - 0.00 in   Overcast
4:28 AM 57.2 °F 55.4 °F 94% 29.73 in 8.0 mi Calm Calm - N/A   Overcast
4:48 AM 57.2 °F 55.4 °F 94% 29.73 in 7.0 mi Calm Calm - N/A   Overcast
4:53 AM 57.0 °F 55.0 °F 93% 29.73 in 8.0 mi Calm Calm - N/A   Overcast
5:53 AM 57.0 °F 55.0 °F 93% 29.74 in 5.0 mi Calm Calm - N/A   Overcast
6:53 AM 57.9 °F 55.9 °F 93% 29.75 in 5.0 mi NE 3.5 mph - 0.02 in   Overcast
7:50 AM 57.2 °F 55.4 °F 94% 29.78 in 4.0 mi Calm Calm - N/A   Overcast
7:53 AM 57.9 °F 55.9 °F 93% 29.78 in 4.0 mi Calm Calm - N/A   Overcast
8:26 AM 59.0 °F 57.2 °F 94% 29.79 in 2.5 mi Calm Calm - 0.00 in Rain Light Rain
8:29 AM 59.0 °F 57.2 °F 94% 29.79 in 1.8 mi East 3.5 mph - 0.01 in Rain Light Rain
8:53 AM 59.0 °F 57.9 °F 96% 29.79 in 1.5 mi Calm Calm - 0.04 in Rain Light Rain
8:58 AM 60.8 °F 57.2 °F 88% 29.79 in 2.5 mi Calm Calm - 0.00 in Rain Light Rain
9:22 AM 60.8 °F 59.0 °F 94% 29.79 in 4.0 mi East 3.5 mph - 0.00 in   Overcast
9:34 AM 60.8 °F 59.0 °F 94% 29.80 in 5.0 mi ESE 4.6 mph - 0.00 in   Overcast
9:53 AM 62.1 °F 60.1 °F 93% 29.79 in 5.0 mi Calm Calm - 0.00 in   Overcast
10:53 AM 66.0 °F 62.1 °F 87% 29.80 in 10.0 mi SE 6.9 mph - N/A   Overcast
11:53 AM 70.0 °F 63.0 °F 78% 29.78 in 10.0 mi ESE 4.6 mph - N/A   Overcast
12:10 PM 71.6 °F 64.4 °F 78% 29.79 in 10.0 mi SE 3.5 mph - N/A   Mostly Cloudy
12:45 PM 71.6 °F 64.4 °F 78% 29.79 in 10.0 mi SE 5.8 mph - N/A   Overcast
12:53 PM 72.0 °F 64.0 °F 76% 29.78 in 10.0 mi Calm Calm - N/A   Overcast
1:48 PM 75.2 °F 66.2 °F 73% 29.77 in 10.0 mi SSE 8.1 mph - N/A   Overcast
1:53 PM 75.0 °F 66.0 °F 73% 29.76 in 10.0 mi SE 6.9 mph - N/A   Overcast
2:53 PM 77.0 °F 66.0 °F 69% 29.74 in 10.0 mi East 4.6 mph - N/A   Scattered Clouds
3:26 PM 77.0 °F 66.2 °F 69% 29.76 in 10.0 mi East 5.8 mph - N/A   Mostly Cloudy
3:53 PM 75.9 °F 66.0 °F 71% 29.74 in 10.0 mi ESE 6.9 mph - N/A   Mostly Cloudy
4:53 PM 78.1 °F 66.0 °F 66% 29.74 in 10.0 mi ESE 9.2 mph - N/A   Scattered Clouds
5:53 PM 75.9 °F 66.9 °F 74% 29.75 in 10.0 mi East 5.8 mph - N/A   Mostly Cloudy
6:51 PM 69.8 °F 66.2 °F 88% 29.80 in 1.5 mi WSW 13.8 mph 25.3 mph 0.10 in Rain Heavy Rain
6:53 PM 69.1 °F 66.0 °F 90% 29.79 in 0.8 mi West 8.1 mph 25.3 mph 0.21 in Rain Heavy Rain
7:06 PM 69.8 °F 66.2 °F 88% 29.80 in 1.2 mi SE 3.5 mph - 0.21 in Rain Rain
7:10 PM 68.0 °F 66.2 °F 94% 29.80 in 2.5 mi East 3.5 mph - 0.22 in Rain Heavy Rain
7:15 PM 68.0 °F 66.2 °F 94% 29.80 in 4.0 mi Calm Calm - 0.22 in Rain Light Rain
7:22 PM 68.0 °F 66.2 °F 94% 29.80 in 10.0 mi Calm Calm - 0.22 in   Overcast
7:53 PM 68.0 °F 64.9 °F 90% 29.81 in 10.0 mi WSW 3.5 mph - 0.22 in   Partly Cloudy
8:27 PM 68.0 °F 66.2 °F 94% 29.84 in 9.0 mi WNW 5.8 mph - N/A   Overcast
8:37 PM 68.0 °F 64.4 °F 88% 29.85 in 8.0 mi WNW 5.8 mph - N/A   Overcast
8:48 PM 66.2 °F 64.4 °F 94% 29.85 in 7.0 mi WNW 5.8 mph - N/A   Overcast
8:53 PM 66.9 °F 64.9 °F 93% 29.85 in 6.0 mi WNW 5.8 mph - N/A   Overcast
9:37 PM 66.2 °F 62.6 °F 88% 29.87 in 5.0 mi WNW 4.6 mph - N/A   Scattered Clouds
9:53 PM 64.9 °F 63.0 °F 93% 29.87 in 4.0 mi Calm Calm - N/A   Clear
10:12 PM 62.6 °F 60.8 °F 94% 29.88 in 2.0 mi Calm Calm - N/A   Clear
10:16 PM 62.6 °F 60.8 °F 94% 29.88 in 1.0 mi Calm Calm - N/A   Clear
10:23 PM 62.6 °F 60.8 °F 94% 29.88 in 0.2 mi Calm Calm - N/A Fog Fog
10:53 PM 60.1 °F 59.0 °F 96% 29.88 in 0.2 mi Calm Calm - N/A Fog Fog
11:28 PM 62.6 °F 60.8 °F 94% 29.90 in 0.5 mi Calm Calm - N/A Fog Fog
11:40 PM 62.6 °F 60.8 °F 94% 29.91 in 1.2 mi WSW 3.5 mph - N/A   Overcast
11:50 PM 62.6 °F 60.8 °F 94% 29.90 in 2.5 mi Calm Calm - N/A   Mostly Cloudy
11:51 PM 62.1 °F 61.0 °F 96% 29.89 in 2.5 mi Calm Calm - N/A   Mostly Cloudy